FW3327 Weather Reports


time (UTC)temp
C
wind
direction
speed
KPH
gust
KPH
rain 1hr
cm
rain 24hr
cm
rain mn
cm
humidity
%
barometer
mb
20260505065508 13 290 3.2 9.7 0.00 0.00 0.00 67 1007.0
20260505065009 13 275 3.2 9.7 0.00 0.00 0.00 68 1007.0
20260505064510 13 272 3.2 11.3 0.00 0.00 0.00 68 1007.0
20260505064008 13 261 4.8 11.3 0.00 0.00 0.00 68 1006.9
20260505063509 13 277 3.2 9.7 0.00 0.00 0.00 68 1006.8
20260505063008 13 288 1.6 6.4 0.00 0.00 0.00 67 1006.8
20260505062509 13 281 1.6 4.8 0.00 0.00 0.00 68 1006.7
20260505062008 13 223 0.0 3.2 0.00 0.00 0.00 68 1006.7
20260505061508 13 273 0.0 4.8 0.00 0.00 0.00 68 1006.6
20260505061008 13 273 0.0 4.8 0.00 0.00 0.00 68 1006.7
20260505060507 13 286 1.6 9.7 0.00 0.00 0.00 68 1006.7
20260505060022 13 261 0.0 9.7 0.00 0.00 0.00 67 1006.6
20260505055507 13 295 0.0 0.0 0.00 0.00 0.00 66 1006.6
20260505055007 13 292 0.0 0.0 0.00 0.00 0.00 66 1006.7
20260505054509 13 292 0.0 0.0 0.00 0.00 0.00 66 1006.7
20260505054011 13 292 0.0 1.6 0.00 0.00 0.00 66 1006.7
20260505053506 13 288 0.0 3.2 0.00 0.00 0.00 66 1006.6
20260505053006 13 288 0.0 3.2 0.00 0.00 0.00 66 1006.6
20260505052506 13 283 1.6 3.2 0.00 0.00 0.00 65 1006.6
20260505052006 14 284 0.0 6.4 0.00 0.00 0.00 66 1006.3
20260505051515 14 339 0.0 3.2 0.00 0.00 0.00 65 1006.4
20260505051005 15 295 0.0 0.0 0.00 0.00 0.00 64 1006.4
20260505050508 15 295 0.0 0.0 0.00 0.00 0.00 63 1006.3
20260505041506 17 279 1.6 6.4 0.00 0.00 0.00 58 1005.7
20260505041003 17 242 0.0 3.2 0.00 0.00 0.00 57 1005.6
20260505040503 17 241 0.0 4.8 0.00 0.00 0.00 56 1005.5
20260505040003 17 246 0.0 8.0 0.00 0.00 0.00 56 1005.4
20260505035504 18 237 1.6 8.0 0.00 0.00 0.00 55 1005.3
20260505035002 18 217 1.6 4.8 0.00 0.00 0.00 56 1005.2
20260505034501 18 321 1.6 4.8 0.00 0.00 0.00 54 1005.1
20260505034002 19 255 1.6 9.7 0.00 0.00 0.00 54 1005.0
20260505033503 19 188 3.2 9.7 0.00 0.00 0.00 52 1004.9
20260505033002 20 286 4.8 9.7 0.00 0.00 0.00 52 1004.9
20260505032501 20 249 0.0 6.4 0.00 0.00 0.00 51 1004.9
20260505032100 20 203 0.0 6.4 0.00 0.00 0.00 51 1004.8
20260505031603 21 180 3.2 8.0 0.00 0.00 0.00 50 1004.7
20260505031100 21 204 4.8 9.7 0.00 0.00 0.00 49 1004.7
20260505030601 22 200 3.2 9.7 0.00 0.00 0.00 48 1004.5
20260505030100 22 225 1.6 8.0 0.00 0.00 0.00 48 1004.5
20260505025600 22 271 1.6 4.8 0.00 0.00 0.00 47 1004.5
20260505025059 22 228 0.0 3.2 0.00 0.00 0.00 47 1004.5
20260505024607 22 202 0.0 4.8 0.00 0.00 0.00 46 1004.4
20260505024101 23 213 0.0 4.8 0.00 0.00 0.00 46 1004.4
20260505023559 23 223 0.0 4.8 0.00 0.00 0.00 46 1004.4
20260505023104 23 186 0.0 4.8 0.00 0.00 0.00 46 1004.4
20260505022559 23 179 0.0 4.8 0.00 0.00 0.00 46 1004.3
20260505022058 23 178 0.0 8.0 0.00 0.00 0.00 46 1004.3
20260505021559 23 196 3.2 9.7 0.00 0.00 0.00 46 1004.3
20260505021058 23 169 3.2 9.7 0.00 0.00 0.00 45 1004.2
20260505020557 23 114 3.2 9.7 0.00 0.00 0.00 45 1004.3
20260505020059 23 187 1.6 11.3 0.00 0.00 0.00 45 1004.3
20260505015557 23 191 3.2 6.4 0.00 0.00 0.00 45 1004.3
20260505015059 23 107 1.6 8.0 0.00 0.00 0.00 45 1004.2
20260505014557 23 171 3.2 8.0 0.00 0.00 0.00 45 1004.2
20260505014059 23 181 3.2 9.7 0.00 0.00 0.00 46 1004.3
20260505013556 23 163 3.2 12.9 0.00 0.00 0.00 45 1004.3
20260505013121 23 157 4.8 12.9 0.00 0.00 0.00 44 1004.2
20260505012657 24 181 4.8 9.7 0.00 0.00 0.00 45 1004.2
20260505012058 24 203 1.6 12.9 0.00 0.00 0.00 46 1004.3
20260505011613 24 168 6.4 16.1 0.00 0.00 0.00 45 1004.5
20260505011055 24 124 1.6 16.1 0.00 0.00 0.00 46 1004.4
20260505010555 24 150 1.6 14.5 0.00 0.00 0.00 46 1004.4
20260505010110 24 188 4.8 14.5 0.00 0.00 0.00 45 1004.5
20260505005555 24 199 4.8 9.7 0.00 0.00 0.00 45 1004.5
20260505005055 24 188 1.6 12.9 0.00 0.00 0.00 45 1004.5
20260505004555 25 173 4.8 14.5 0.00 0.00 0.00 45 1004.6
20260505004056 25 198 4.8 12.9 0.00 0.00 0.00 45 1004.6
20260505003558 25 197 4.8 11.3 0.00 0.00 0.00 46 1004.6
20260505003102 25 232 3.2 11.3 0.00 0.00 0.00 45 1004.6
20260505002556 25 188 4.8 12.9 0.00 0.00 0.00 44 1004.6
20260505002054 25 237 6.4 11.3 0.00 0.00 0.00 44 1004.6
20260505001554 25 206 3.2 12.9 0.00 0.00 0.00 45 1004.6
20260505001054 25 242 4.8 12.9 0.00 0.00 0.00 45 1004.6
20260505000554 25 213 4.8 9.7 0.00 0.00 0.00 45 1004.7
20260505000100 25 188 3.2 14.5 0.00 0.00 0.00 44 1004.7
20260504235556 25 191 6.4 14.5 0.00 0.00 0.00 44 1004.7
20260504235058 25 185 6.4 12.9 0.00 0.00 0.00 44 1004.7
20260504234552 25 247 4.8 11.3 0.00 0.00 0.00 44 1004.7
20260504234053 25 144 4.8 11.3 0.00 0.00 0.00 43 1004.8
20260504233554 25 182 6.4 12.9 0.00 0.00 0.00 43 1004.8
20260504233100 25 216 1.6 14.5 0.00 0.00 0.00 44 1004.9
20260504232552 25 226 3.2 12.9 0.00 0.00 0.00 44 1004.9
20260504232051 25 184 3.2 16.1 0.00 0.00 0.00 44 1004.9
20260504231651 26 172 4.8 16.1 0.00 0.00 0.00 44 1004.9
20260504231050 26 183 3.2 12.9 0.00 0.00 0.00 44 1004.9
20260504230551 25 232 3.2 11.3 0.00 0.00 0.00 44 1005.0
20260504230058 25 202 3.2 11.3 0.00 0.00 0.00 44 1005.0
20260504225549 25 173 6.4 11.3 0.00 0.00 0.00 44 1005.0
20260504225049 25 203 1.6 9.7 0.00 0.00 0.00 45 1005.1
20260504224546 25 242 3.2 12.9 0.00 0.00 0.00 45 1005.2
20260504224046 25 222 4.8 12.9 0.00 0.00 0.00 45 1005.2
20260504223545 25 170 3.2 9.7 0.00 0.00 0.00 46 1005.4
20260504223052 24 216 4.8 9.7 0.00 0.00 0.00 46 1005.5
20260504222542 23 247 3.2 11.3 0.00 0.00 0.00 48 1005.5
20260504222040 23 293 1.6 8.0 0.00 0.00 0.00 47 1005.5
20260504221538 23 219 3.2 8.0 0.00 0.00 0.00 48 1005.5
20260504221038 23 316 1.6 11.3 0.00 0.00 0.00 48 1005.5
20260504220535 22 188 3.2 11.3 0.00 0.00 0.00 50 1005.6
20260504220041 22 10 1.6 9.7 0.00 0.00 0.00 52 1005.8
20260504215533 22 31 4.8 9.7 0.00 0.00 0.00 51 1005.7
20260504215034 22 69 0.0 14.5 0.00 0.00 0.00 51 1005.8
20260504214541 22 81 6.4 14.5 0.00 0.00 0.00 52 1005.8
20260504214031 22 254 3.2 11.3 0.00 0.00 0.00 52 1005.8
20260504213533 21 121 8.0 12.9 0.00 0.00 0.00 53 1005.8
20260504213034 21 44 1.6 12.9 0.00 0.00 0.00 52 1006.0
20260504212528 21 110 6.4 12.9 0.00 0.00 0.00 53 1006.0
20260504212031 21 63 0.0 12.9 0.00 0.00 0.00 53 1006.1
20260504211535 21 82 3.2 9.7 0.00 0.00 0.00 53 1006.2
20260504211026 21 114 0.0 14.5 0.00 0.00 0.00 54 1006.4
20260504210526 21 100 6.4 14.5 0.00 0.00 0.00 54 1006.5
20260504210025 21 95 3.2 12.9 0.00 0.00 0.00 53 1006.6
20260504205524 21 92 6.4 12.9 0.00 0.00 0.00 56 1006.7
20260504205024 20 117 3.2 8.0 0.00 0.00 0.00 56 1006.7
20260504204523 20 126 0.0 8.0 0.00 0.00 0.00 57 1006.8
20260504204020 19 67 1.6 9.7 0.00 0.00 0.00 57 1006.9
20260504203521 19 95 3.2 12.9 0.00 0.00 0.00 57 1006.9
20260504203022 19 84 8.0 12.9 0.00 0.00 0.00 57 1007.0
20260504202620 19 40 0.0 9.7 0.00 0.00 0.00 57 1007.0
20260504202019 19 84 4.8 14.5 0.00 0.00 0.00 58 1007.1
20260504201517 19 81 8.0 14.5 0.00 0.00 0.00 58 1007.1
20260504201018 18 38 1.6 14.5 0.00 0.00 0.00 58 1007.2
20260504200516 18 114 4.8 14.5 0.00 0.00 0.00 60 1007.3
20260504200016 18 65 4.8 14.5 0.00 0.00 0.00 58 1007.3
20260504195515 18 103 3.2 12.9 0.00 0.00 0.00 59 1007.3
20260504195017 18 65 4.8 14.5 0.00 0.00 0.00 57 1007.4
20260504194515 18 105 4.8 14.5 0.00 0.00 0.00 56 1007.3
20260504194017 19 68 6.4 12.9 0.00 0.00 0.00 56 1007.3
20260504193514 18 171 4.8 11.3 0.00 0.00 0.00 58 1007.5
20260504193020 18 138 4.8 16.1 0.00 0.00 0.00 58 1007.5
20260504192512 18 98 9.7 16.1 0.00 0.00 0.00 58 1007.5
20260504192014 18 107 4.8 11.3 0.00 0.00 0.00 56 1007.6
20260504191515 18 114 1.6 9.7 0.00 0.00 0.00 56 1007.6
20260504191011 18 112 1.6 11.3 0.00 0.00 0.00 57 1007.7
20260504190511 18 119 3.2 9.7 0.00 0.00 0.00 57 1007.7
20260504190012 18 71 0.0 9.7 0.00 0.00 0.00 56 1007.8
20260504185512 18 85 0.0 9.7 0.00 0.00 0.00 56 1007.8
20260504185015 17 200 3.2 8.0 0.00 0.00 0.00 59 1007.8
20260504184506 17 138 1.6 9.7 0.00 0.00 0.00 59 1007.8
20260504184007 17 144 3.2 9.7 0.00 0.00 0.00 59 1007.9
20260504183507 17 50 3.2 14.5 0.00 0.00 0.00 58 1007.9
20260504183005 17 71 4.8 14.5 0.00 0.00 0.00 59 1007.9
20260504182504 17 132 1.6 6.4 0.00 0.00 0.00 59 1007.9
20260504182003 17 243 0.0 11.3 0.00 0.00 0.00 58 1007.8
20260504181503 17 138 1.6 9.7 0.00 0.00 0.00 58 1007.8
20260504181101 17 211 1.6 6.4 0.00 0.00 0.00 59 1007.8
20260504180604 17 99 1.6 4.8 0.00 0.00 0.00 60 1007.9
20260504180059 16 142 0.0 4.8 0.00 0.00 0.00 61 1007.9
20260504175558 16 128 1.6 6.4 0.00 0.00 0.00 60 1008.0
20260504175056 16 126 1.6 6.4 0.00 0.00 0.00 61 1007.9
20260504174556 16 180 1.6 8.0 0.00 0.00 0.00 61 1007.9
20260504174055 16 207 3.2 8.0 0.00 0.00 0.00 61 1007.9
20260504173554 16 256 0.0 6.4 0.00 0.00 0.00 61 1007.9
20260504173055 16 202 0.0 4.8 0.00 0.00 0.00 62 1007.8
20260504172553 15 200 0.0 4.8 0.00 0.00 0.00 63 1007.8
20260504172054 15 225 0.0 4.8 0.00 0.00 0.00 62 1007.8
20260504171557 15 240 0.0 11.3 0.00 0.00 0.00 63 1007.7
20260504171049 15 246 4.8 11.3 0.00 0.00 0.00 63 1007.7
20260504170554 15 264 6.4 11.3 0.00 0.00 0.00 63 1007.6
20260504151031 15 159 1.6 4.8 0.00 0.00 0.00 63 1007.6
20260504150529 15 189 1.6 4.8 0.00 0.00 0.00 64 1007.4
20260504141014 12 163 1.6 9.7 0.00 0.00 0.00 70 1006.7
20260504140513 12 224 3.2 8.0 0.00 0.00 0.00 70 1006.7
20260504130604 12 294 0.0 6.4 0.00 0.00 0.00 70 1005.8
20260504120107 12 216 0.0 9.7 0.00 0.00 0.00 70 1004.6
20260504110547 12 320 0.0 1.6 0.00 0.00 0.00 70 1004.0
20260504100535 12 284 1.6 4.8 0.00 0.00 0.00 70 1003.2
20260504100135 12 284 1.6 4.8 0.00 0.00 0.00 69 1003.0
20260504081532 13 265 0.0 0.0 0.00 0.00 0.00 68 1002.7
20260504081022 13 265 0.0 0.0 0.00 0.00 0.00 67 1002.7
20260504080523 14 265 0.0 0.0 0.00 0.00 0.00 68 1002.7